Preview of NWS' New Version of Forecast
This preview is not operational and should not be used for support decisions.

Regional Weather Roundup (RWR)

Issued by National Weather Service (NWS)

                            
000
ASUS43 KLSX 181357
RWRMO 

WEATHER SUMMARY FOR MISSOURI
NATIONAL WEATHER SERVICE SPRINGFIELD MO
900 AM CDT TUE JUN 18 2019

NOTE: "FAIR" INDICATES FEW OR NO CLOUDS BELOW 12,000 FEET WITH NO
       SIGNIFICANT WEATHER AND/OR OBSTRUCTIONS TO VISIBILITY.
       CURRENT SKY AND/OR WEATHER CONDITIONS ARE NOT AVAILABLE FOR
       CHILLICOTHE AND FARMINGTON.

MOZ001>031-035>038-043-044-053-054-181500-
...NORTHERN AND WESTERN MISSOURI...
  
CITY           SKY/WX    TMP DP  RH WIND       PRES   REMARKS
KANSAS CTY INT PTSUNNY   69  65  86 VRB3      29.96S                  
LEE'S SUMMIT   PTSUNNY   70  64  81 E6        29.96S                  
ST JOSEPH      MOSUNNY   71  64  78 SE3       29.96R                  
CHILLICOTHE      N/A     67  65  93 CALM      29.97S                  
     
$$
MOZ066>068-077>081-088>096-101>105-181500-
...SOUTHWEST MISSOURI...
  
CITY           SKY/WX    TMP DP  RH WIND       PRES   REMARKS
SPRINGFIELD    CLOUDY    67  65  93 VRB3      29.95S FOG              
JOPLIN         SUNNY     74  67  78 CALM      29.95R                  
BRANSON        CLOUDY    66  66 100 NW3       29.97R FOG              
               
$$
MOZ032>034-039>042-045>050-055>058-069>072-181500-
...CENTRAL MISSOURI...  
  
CITY           SKY/WX    TMP DP  RH WIND       PRES   REMARKS
COLUMBIA       NOT AVBL                                               
ROLLA          CLOUDY    68  67  96 E6        29.95S FOG              
SEDALIA        CLOUDY    66  66 100 S3        29.96S FOG              
WARRENSBURG    FOG       63  63 100 CALM      29.96R VSB 1            
               
$$
MOZ051-052-059>065-181500-
...EAST CENTRAL MISSOURI...
  
CITY           SKY/WX    TMP DP  RH WIND       PRES   REMARKS
ST LOUIS INTL  PTSUNNY   74  67  78 CALM      29.93F                  
                   
$$
MOZ072>076-082>087-097>100-106>115-181500-
...SOUTH CENTRAL AND SOUTHEAST MISSOURI...
  
CITY           SKY/WX    TMP DP  RH WIND       PRES   REMARKS
CAPE GIRARDEAU CLOUDY    75  68  78 W5        29.91S                  
POPLAR BLUFF   CLOUDY    73  71  93 CALM      29.91S                  
WEST PLAINS    CLOUDY    71  68  90 W3        29.96R                  
                                       
$$